Home   Weather   Bonn   Past weeks
Flag for Germany

Past Weather in Bonn, North Rhine-Westphalia, Germany — Yesterday and Last 2 Weeks

Now
30 °F

Overcast.


Feels Like: 30 °F
Forecast: 31 / 42 °F
Wind: 2 mph from South

Location: Aachen-Orsbach

Current Time: Dec 15, 2018 at 5:36:40 am

Latest Report: Dec 15, 2018 at 3:00 am


Visibility: 19 mi

Pressure: 30.31 "Hg

Humidity: 69%

Dew Point: 21 °F

Location of BonnLocation

Past Weather in Bonn — Graph

°F

Bonn Temperature Yesterday

Maximum temperature yesterday: 33 °F (at 2:00 pm)
Minimum temperature yesterday: 31 °F (at 6:00 am)
Average temperature yesterday: 31 °F

High & Low Weather Summary for the Past Weeks

 TemperatureHumidityPressure
High56 °F (Dec 2, 6:00 pm)99% (Dec 2, 11:00 pm)30.32 "Hg (Dec 2, 11:00 pm)
Low30 °F (Dec 13, 8:00 am)63% (Dec 14, 2:00 pm)29.41 "Hg (Dec 8, 11:00 pm)
Average43 °F85%29.96 "Hg
* Reported Nov 30 3:00 am — Dec 15 3:00 am, Bonn. Weather by CustomWeather, © 2018

Note: Actual official high and low records may vary slightly from our data, if they occured in-between our weather recording intervals... More about our weather records

Advertising

Bonn Weather History for the Previous 24 Hours

Scroll right to see more
 ConditionsComfort  
Time TempWeatherWind HumidityBarometerVisibility
3:00 am
Sat, Dec 15
30 °FOvercast.2 mph69%30.31 "Hg19 mi
2:00 am31 °FOvercast.2 mph63%30.30 "Hg28 mi
12:00 am31 °FOvercast.5 mph65%30.28 "Hg22 mi
11:00 pm
Fri, Dec 14
31 °FOvercast.5 mph64%30.27 "Hg25 mi
10:00 pmN/APassing clouds.8 mphN/AN/A18 mi
9:00 pm31 °FOvercast.3 mph66%30.29 "Hg22 mi
8:00 pm32 °FOvercast.5 mph65%30.28 "Hg19 mi
6:00 pm31 °FOvercast.2 mph76%30.26 "Hg14 mi
5:00 pm32 °FOvercast.5 mph66%30.25 "Hg25 mi
3:00 pm32 °FOvercast.6 mph64%30.21 "Hg25 mi
2:00 pm33 °FOvercast.5 mph63%30.20 "Hg28 mi
12:00 pm32 °FOvercast.6 mph65%30.21 "Hg25 mi
11:00 am32 °FOvercast.8 mph66%30.21 "Hg28 mi
9:00 am31 °FOvercast.7 mph67%30.19 "Hg22 mi
8:00 am31 °FOvercast.7 mph69%30.16 "Hg19 mi
6:00 am31 °FOvercast.2 mph77%30.15 "Hg19 mi
5:00 am31 °FOvercast.6 mph69%30.14 "Hg22 mi
Weather by CustomWeather, © 2018

See weather overview